Theta_e
308 308 309 309 310 310 310 312 312 311 312 313 314 314 314 314 315 317 317 318 320 320 320 321 322 322 321 320 317 315 316 321 326 327 328 327 327 327 327 328 328 327 327 327 325 326 327 327 326 326 330 332 329 327 325 329 334 337 344 344 343 345 345 344 345 341 333 333 336 330 324 326 326 323 321 320 325 330 328 332 336 334 334 334 333 332 332 335
308 309 309 309 309 310 310 311 312 312 313 313 313 313 314 315 315 316 317 318 319 320 320 320 322 323 321 320 317 316 318 322 324 326 327 327 327 327 327 328 328 328 327 326 326 325 331 334 327 328 335 336 330 327 329 328 331 346 344 338 347 351 346 343 345 340 330 327 330 328 324 324 325 324 322 322 326 328 328 330 334 339 338 334 333 333 333 334
307 308 308 308 308 309 310 311 311 312 313 313 313 314 315 315 315 316 317 317 319 320 320 320 321 323 322 320 318 317 319 322 323 323 324 326 327 327 326 327 327 328 327 326 326 324 329 332 325 330 337 337 335 331 333 330 329 342 339 338 352 350 342 341 339 335 329 325 326 326 324 324 325 323 321 324 327 326 330 332 330 338 344 344 337 331 333 333
307 307 308 309 308 308 310 310 310 311 312 313 313 314 315 315 314 316 317 317 318 319 320 320 321 322 322 320 318 319 319 320 321 319 319 322 325 327 326 327 327 327 328 326 326 325 326 326 325 332 335 338 341 333 333 333 330 335 336 343 351 341 336 341 339 335 329 324 326 326 323 323 323 322 322 326 328 327 331 331 330 335 345 351 340 331 332 332
308 307 308 308 309 308 309 309 310 311 312 313 313 313 314 314 314 315 317 316 317 318 320 320 320 322 323 320 319 321 319 318 321 318 318 320 320 325 326 326 327 326 327 326 326 326 325 325 328 334 335 339 340 334 337 335 330 334 336 343 348 337 333 340 342 336 328 323 326 326 324 322 321 322 326 327 328 331 329 327 329 330 338 350 342 332 331 331
308 307 307 308 309 308 308 309 310 311 312 312 313 313 314 315 314 315 316 316 316 317 319 320 320 321 322 321 321 321 318 320 324 322 322 323 319 320 324 325 327 326 326 326 326 325 328 329 331 337 337 338 337 337 341 334 328 334 336 339 343 337 333 339 340 334 329 327 329 328 323 323 323 324 325 325 326 330 328 325 326 323 328 338 336 332 333 334
307 307 307 308 308 309 309 309 309 310 311 312 312 313 314 314 314 314 315 316 316 316 319 319 320 321 322 322 322 321 319 319 322 323 323 324 323 320 321 324 325 326 327 326 326 328 333 333 332 336 337 337 337 338 339 334 330 331 335 338 339 335 334 336 335 332 329 329 331 327 322 323 327 324 321 323 326 327 325 321 318 317 324 332 334 334 335 334
307 307 307 307 308 308 309 309 309 310 311 312 312 313 314 314 314 314 315 316 316 316 318 318 320 321 321 322 322 322 320 318 319 324 323 321 324 323 322 325 326 326 327 326 327 330 332 332 331 331 335 338 336 336 335 333 335 332 334 340 337 335 336 335 334 336 333 330 328 324 324 329 328 323 322 326 329 328 325 327 327 327 332 336 337 337 334 333
306 306 307 307 307 308 308 309 309 310 310 311 311 312 313 314 314 314 315 316 315 316 317 317 319 320 321 320 321 322 321 318 317 321 321 317 321 324 325 327 328 327 326 327 326 326 329 332 333 329 334 338 332 334 334 334 341 336 333 337 336 335 336 333 331 336 336 330 326 324 328 332 326 323 326 330 332 330 328 339 346 342 343 341 338 336 333 335
306 306 306 307 307 308 308 308 309 310 310 310 311 312 313 313 314 314 315 315 316 316 316 317 318 320 321 319 320 323 320 317 318 317 317 315 316 324 328 328 328 327 326 327 325 324 328 330 329 328 333 334 330 331 332 334 337 333 332 335 334 335 336 332 330 333 331 328 327 327 331 332 326 324 329 333 331 327 329 345 348 345 351 344 337 336 332 333
305 305 306 306 307 307 308 308 309 309 309 310 310 312 313 313 314 314 314 315 316 315 316 317 318 320 320 318 321 323 318 316 319 318 317 315 315 322 329 329 328 328 326 326 325 324 326 325 323 326 329 330 331 331 331 332 331 330 331 333 336 338 336 333 334 334 328 328 330 327 329 330 326 326 332 336 330 324 328 345 348 349 352 342 337 336 332 331
305 305 306 306 306 307 308 308 308 308 309 309 310 311 312 313 313 314 314 315 315 316 316 317 318 319 320 319 321 321 316 316 318 317 317 316 316 320 326 329 328 328 326 325 325 325 324 323 322 327 329 330 331 329 330 330 328 330 330 333 340 338 336 336 337 335 329 330 332 326 328 330 328 329 334 337 330 323 324 335 345 350 347 338 336 335 333 332
305 305 305 306 306 305 307 308 307 308 309 309 310 311 312 313 313 314 314 315 315 316 317 317 318 319 320 321 320 319 316 316 317 317 317 316 318 320 322 328 329 328 327 326 326 325 325 324 324 327 327 331 333 327 327 329 328 330 330 332 338 336 337 339 334 332 330 330 331 328 331 334 331 330 331 333 330 326 326 328 335 341 339 335 334 334 335 332
304 304 304 305 305 305 306 307 307 308 309 310 310 311 312 312 313 314 314 314 314 315 316 317 318 318 319 319 318 318 317 317 317 318 318 317 320 323 323 326 329 328 326 326 326 326 326 326 325 326 326 329 331 326 330 336 333 332 332 332 335 337 340 340 334 332 331 329 329 329 331 334 334 333 331 330 328 328 330 329 329 331 332 332 332 333 334 332
304 304 304 305 306 305 305 306 307 308 309 309 309 310 311 312 313 313 313 314 314 314 316 316 317 317 317 318 317 318 318 317 317 318 319 318 320 325 326 327 328 327 326 326 325 324 326 327 327 329 329 327 327 329 335 338 335 333 333 334 336 337 338 338 334 332 333 330 327 328 334 336 333 333 333 330 328 327 329 330 328 327 327 327 327 329 331 331
304 305 304 304 305 305 304 306 307 308 308 308 308 309 310 311 312 313 314 313 313 314 315 315 314 316 318 318 316 317 318 318 317 318 319 318 319 323 326 328 327 327 326 325 323 322 324 327 327 329 330 328 329 333 335 335 334 333 332 335 337 335 334 336 334 330 333 332 327 327 336 341 338 336 334 329 328 328 328 327 327 327 326 324 323 323 325 327
303 304 305 304 304 305 305 305 306 308 308 307 308 309 309 310 311 313 313 313 314 314 314 313 312 314 317 316 315 317 319 318 317 318 319 319 319 321 325 327 327 325 324 323 322 321 324 327 327 327 329 331 332 331 332 333 332 331 331 333 335 335 334 334 333 330 330 332 331 329 330 335 339 341 337 331 328 329 329 327 327 326 326 326 324 322 321 321
303 303 305 305 304 305 305 305 305 307 308 307 308 309 310 310 311 312 311 311 313 312 311 311 311 315 317 315 315 317 318 317 318 318 319 321 321 322 324 326 326 324 324 324 323 323 325 327 327 329 330 331 331 330 331 330 328 329 331 332 332 333 333 332 333 331 329 330 332 332 330 328 330 332 333 333 330 329 329 327 326 326 326 326 326 324 322 320
303 303 304 304 305 305 305 305 305 307 308 308 309 310 310 310 310 311 309 310 311 310 312 312 312 315 317 316 315 316 317 318 318 317 318 322 324 324 324 325 326 325 326 327 325 325 325 326 327 329 332 332 331 330 329 328 328 329 329 329 330 331 330 331 336 335 330 330 332 331 330 330 329 327 327 329 330 330 331 327 326 327 327 326 325 325 324 323
303 304 303 304 304 305 306 306 305 306 308 309 309 309 309 309 309 310 309 309 311 312 313 313 312 314 316 315 314 316 317 318 318 317 318 321 323 324 322 323 326 326 326 326 326 325 325 326 328 328 331 332 330 329 328 328 329 328 327 327 328 329 329 329 335 335 328 329 334 332 330 330 329 328 326 326 328 329 330 329 328 327 326 326 325 325 325 324
304 304 304 304 304 304 306 306 306 306 307 309 309 308 309 310 309 310 310 310 311 310 312 312 311 313 314 313 314 315 318 318 318 317 318 321 323 323 322 323 328 328 325 325 325 325 325 326 327 327 328 329 330 330 328 329 329 327 327 327 327 327 327 327 331 333 328 329 335 334 332 331 329 328 326 326 328 327 327 328 328 326 326 325 325 325 325 323
305 305 305 304 304 304 305 306 306 306 307 308 308 308 310 309 308 309 310 311 310 308 310 311 310 311 312 312 313 314 317 319 319 317 317 319 320 321 322 322 327 328 325 324 324 325 327 327 325 324 325 327 330 330 329 330 330 328 327 327 327 326 326 326 329 330 327 329 335 336 333 331 329 329 327 326 326 325 325 326 326 326 326 325 326 326 324 324
305 305 305 305 304 305 305 305 306 306 307 307 307 308 308 308 308 307 309 311 310 308 310 311 311 311 312 312 313 313 317 319 319 318 317 319 319 319 322 322 324 326 326 325 324 325 326 326 323 322 324 326 329 331 330 330 330 330 329 328 328 328 326 327 326 327 328 329 335 336 332 328 328 329 328 326 325 325 325 326 325 325 325 325 326 326 325 325
305 305 304 304 305 305 304 304 305 306 307 307 307 307 307 307 306 308 311 311 309 309 309 310 310 311 312 312 313 314 316 317 318 318 317 319 320 319 321 321 321 323 325 324 323 323 323 323 324 323 323 325 327 329 330 331 332 331 330 330 329 328 327 328 327 326 327 327 328 329 329 326 325 326 326 324 325 326 326 326 326 325 324 325 325 326 326 326
305 305 304 305 305 305 305 305 306 306 307 306 307 307 307 307 306 307 311 310 309 308 307 308 310 311 311 311 312 314 315 315 317 317 316 318 319 319 320 320 320 322 322 323 323 323 321 321 325 325 323 324 325 327 329 331 333 332 331 330 329 328 327 326 327 327 327 328 326 327 329 328 325 325 324 322 323 323 324 326 326 325 324 324 325 325 325 325
305 305 305 305 305 305 305 306 305 305 305 306 307 307 306 307 306 306 309 309 309 308 307 308 310 311 311 311 312 314 315 315 315 314 315 318 318 318 320 320 320 321 320 321 323 324 323 322 323 324 323 325 325 325 326 328 331 331 330 329 329 329 328 326 326 327 329 329 326 325 329 330 328 326 323 322 322 321 322 324 323 323 324 323 324 323 324 324
305 305 305 305 305 305 306 306 305 304 305 306 306 306 305 306 306 305 308 310 309 309 308 308 309 309 310 311 312 313 315 316 315 314 315 317 318 317 319 320 321 320 318 320 322 323 324 323 324 324 324 325 325 325 324 326 329 329 328 330 330 330 329 327 326 326 327 328 326 324 326 329 329 327 325 323 322 322 321 321 321 321 322 322 323 322 323 323
304 305 305 305 305 305 305 305 305 305 306 305 305 306 305 305 305 305 308 310 310 309 309 309 308 308 310 311 311 313 316 316 316 316 314 316 318 317 319 320 320 321 318 319 322 322 323 324 324 324 324 324 324 324 324 324 327 328 329 332 330 329 329 329 328 328 328 329 329 325 325 329 329 327 327 325 323 323 322 321 320 320 321 321 321 321 322 322
303 304 305 305 304 304 305 305 305 306 305 304 304 305 304 304 305 306 308 309 309 307 308 310 309 308 311 312 312 312 314 314 315 316 314 315 316 316 318 319 318 320 319 319 320 320 322 324 323 324 325 324 322 321 323 324 325 327 331 331 329 329 329 329 330 330 329 330 332 328 325 329 331 328 326 325 324 324 322 321 321 320 320 321 321 321 321 321
302 304 305 305 304 304 304 305 305 305 305 304 305 304 303 305 306 307 308 308 308 309 309 310 310 310 312 313 313 312 312 314 316 316 315 316 315 314 316 318 318 319 319 319 319 319 321 322 322 324 324 323 321 321 321 322 323 327 330 328 329 329 327 328 328 329 331 332 331 329 326 328 331 330 326 325 324 323 323 322 321 322 322 321 321 321 321 321
301 303 304 304 304 303 304 305 305 305 305 305 305 303 303 305 306 307 307 306 308 309 308 309 310 311 312 313 314 313 312 313 315 316 316 317 316 315 316 317 319 320 319 320 320 319 320 320 321 324 324 322 322 322 321 320 323 328 328 327 328 327 325 327 327 327 331 332 330 329 327 328 331 331 327 325 324 322 322 322 321 323 324 322 321 321 321 321
300 302 304 304 303 303 303 305 304 304 306 305 303 303 305 306 306 306 307 307 307 308 308 308 310 312 312 312 313 313 312 312 314 316 317 316 317 317 318 317 318 320 321 320 321 320 320 319 319 322 322 322 323 323 323 322 323 326 327 327 328 327 327 328 327 328 330 330 330 330 329 329 330 328 326 328 327 324 322 321 322 322 323 323 322 321 320 320
300 301 304 305 304 303 303 304 304 304 305 304 303 305 305 306 306 306 307 307 305 306 308 308 309 311 312 312 312 312 312 312 314 315 315 316 316 317 317 316 317 319 320 320 322 321 320 319 318 319 320 322 323 324 324 323 324 325 325 326 326 327 329 328 327 328 328 327 329 330 329 329 329 326 325 325 326 326 323 321 322 322 322 322 322 321 321 321
300 300 303 305 304 304 303 303 304 305 304 303 304 305 305 305 306 306 306 305 303 305 307 308 309 311 312 312 311 312 312 312 313 313 314 315 315 316 317 316 316 317 317 319 321 321 320 319 318 319 320 322 322 322 323 323 324 324 323 324 325 325 327 327 328 328 326 325 326 327 328 329 328 326 327 327 325 324 323 321 323 323 322 321 321 321 321 320
299 301 303 304 304 304 304 303 305 305 304 303 304 305 305 305 305 306 306 305 304 305 306 307 310 311 311 311 310 310 312 312 312 312 312 314 314 315 315 316 316 316 316 318 319 320 320 318 318 318 319 322 322 321 321 323 324 323 321 322 324 324 324 325 326 326 326 325 324 326 329 329 326 322 326 332 328 321 321 322 323 323 322 322 321 320 319 319
299 301 304 304 304 305 304 304 305 304 303 304 305 305 305 305 305 306 306 305 305 306 307 308 310 310 311 311 311 310 310 311 312 312 312 312 313 313 313 314 316 316 316 317 318 319 320 319 318 319 320 321 320 320 321 322 324 324 322 323 323 322 323 325 326 324 325 326 325 326 329 327 325 322 323 329 327 321 320 321 321 321 321 322 321 320 319 318
299 301 304 304 304 305 304 305 304 302 303 304 304 305 304 303 304 305 305 304 304 307 309 310 309 309 310 311 311 311 311 310 311 312 312 312 313 313 312 314 316 316 315 316 317 317 318 319 318 319 320 319 319 320 321 321 324 325 325 324 322 321 322 323 325 325 325 326 326 326 326 324 323 324 323 325 326 322 321 320 319 320 320 321 321 320 320 319
299 302 304 304 304 305 304 304 303 302 303 304 303 305 305 302 301 303 304 304 303 305 309 310 307 307 310 312 311 311 310 311 311 311 311 312 312 313 312 312 315 317 315 315 316 316 316 317 317 319 321 319 318 320 321 321 321 322 324 325 324 324 324 321 324 326 327 326 325 324 323 322 322 322 322 325 326 323 321 320 319 319 319 320 320 320 320 319
300 303 305 304 304 304 304 303 301 302 304 303 302 304 304 303 302 303 305 304 304 305 306 307 305 304 309 313 311 309 309 311 312 311 311 311 311 313 312 311 313 316 316 315 316 316 316 316 316 319 321 320 319 320 321 321 319 318 321 323 323 325 325 324 324 325 326 326 326 325 324 323 322 320 320 323 324 323 322 320 319 319 319 319 319 319 320 320
301 304 305 304 304 304 303 301 300 302 303 302 302 302 302 303 303 304 305 305 306 304 302 305 304 302 307 310 309 310 310 311 312 311 311 310 312 314 313 311 313 315 316 316 316 316 316 316 316 318 319 319 319 319 320 321 320 319 321 323 322 323 324 325 325 324 325 326 326 326 324 323 322 321 320 320 321 322 324 322 319 318 318 318 318 319 319 319
302 305 304 303 303 302 301 301 302 303 303 302 302 301 301 302 303 304 305 304 305 303 302 307 306 302 305 308 308 311 311 311 311 311 311 310 311 312 311 310 312 314 315 315 315 316 315 315 317 317 317 318 319 320 319 320 321 321 321 321 321 322 323 325 326 325 325 325 325 325 324 325 326 324 320 319 320 320 323 323 320 318 318 318 318 318 318 319
302 305 303 301 302 301 301 302 302 303 303 302 302 301 302 302 302 303 303 303 305 305 305 308 306 304 304 305 308 311 312 312 311 310 311 311 310 310 310 311 311 310 314 316 315 315 314 315 316 316 316 317 319 319 316 316 319 320 321 320 320 320 322 324 325 324 324 325 325 326 325 326 329 327 322 320 320 319 320 321 319 318 318 318 318 318 318 318
301 303 302 301 300 300 302 304 303 303 303 301 300 300 301 303 302 302 303 303 303 305 308 309 305 304 305 304 306 310 311 311 311 310 311 311 310 309 308 311 311 309 313 315 315 315 315 315 315 315 315 315 317 318 314 310 312 316 320 320 320 320 320 321 322 321 322 324 325 326 326 325 326 329 327 323 322 321 320 320 318 319 319 319 319 319 318 318
299 299 301 301 300 300 302 304 303 303 302 300 300 300 301 302 302 301 302 303 303 305 309 309 305 304 305 305 307 309 309 308 308 310 311 310 312 311 307 308 311 310 311 314 315 314 314 315 315 315 315 314 314 316 315 312 312 315 319 320 320 320 320 321 321 321 321 322 322 324 325 323 324 330 328 324 322 321 321 322 320 319 320 320 320 319 319 318
299 299 300 300 300 301 303 303 303 303 302 301 301 300 301 301 302 302 301 302 304 306 306 307 306 305 306 306 307 309 309 307 307 308 309 309 311 312 310 309 309 308 309 314 315 312 311 314 315 315 315 314 312 312 313 314 314 316 319 319 318 319 320 321 321 321 322 322 322 322 322 320 323 327 325 323 323 322 322 324 322 319 319 318 319 319 319 319
300 301 301 300 300 301 302 302 303 303 301 301 301 301 301 301 301 302 301 301 304 305 304 305 305 306 306 306 307 309 308 306 307 308 309 310 311 312 312 310 308 307 309 312 312 310 310 312 313 313 313 313 312 311 310 311 312 315 318 318 318 318 319 320 321 322 322 323 322 322 321 321 321 321 321 323 327 327 325 323 321 319 318 317 318 318 318 318
300 301 301 301 301 302 302 303 304 303 301 301 301 301 300 300 301 301 301 301 302 302 303 305 305 305 306 306 306 307 307 306 306 307 308 309 310 311 311 309 308 308 309 309 309 309 310 311 310 310 311 311 310 310 310 311 311 312 315 316 317 318 318 320 321 322 322 323 323 322 322 322 321 319 319 321 324 326 324 322 321 319 317 316 316 316 317 317
300 300 300 300 301 303 303 303 303 303 302 301 301 301 301 300 300 301 302 302 301 301 302 304 305 304 305 305 305 306 306 306 306 306 306 307 307 307 308 309 309 309 309 309 308 309 309 309 309 309 309 309 309 309 309 310 310 311 312 313 314 316 318 319 320 320 321 323 323 322 322 323 321 320 320 319 320 321 320 321 321 319 318 316 314 314 315 315
298 298 298 299 300 302 303 303 302 302 302 301 301 302 301 301 300 301 304 304 302 302 302 302 303 303 303 304 305 305 306 306 306 305 305 305 306 306 306 307 308 308 309 308 307 308 309 308 308 309 308 308 309 309 309 309 310 311 311 311 312 314 315 316 318 318 319 321 321 322 322 322 321 321 320 318 319 319 319 321 320 319 319 318 316 316 315 314
294 295 296 297 300 302 302 302 302 302 302 302 302 301 301 301 300 300 302 304 303 303 303 302 301 302 303 304 304 304 304 305 305 304 304 305 305 306 307 307 307 307 308 308 308 309 309 308 308 308 309 309 308 309 310 310 311 311 310 311 312 313 314 314 315 316 318 318 318 320 321 321 320 320 320 319 318 318 320 321 319 318 318 318 318 317 316 315
292 292 293 295 300 302 301 302 303 303 302 302 302 302 301 301 301 300 301 302 302 303 303 302 302 303 305 305 305 304 304 304 304 303 304 305 306 306 307 308 308 308 308 308 309 309 308 308 308 309 309 309 308 310 310 309 310 310 309 310 311 312 312 313 314 315 316 317 318 319 320 320 319 318 318 318 318 318 318 319 318 317 317 318 318 318 317 316
290 291 292 295 299 301 301 302 302 303 303 303 302 302 301 301 301 301 301 301 301 301 302 303 302 303 304 304 304 304 303 303 304 304 304 305 306 306 307 307 308 309 310 308 307 308 307 307 308 309 308 308 307 308 309 308 308 308 308 308 308 309 311 312 313 314 314 316 317 317 318 318 318 318 318 318 318 318 318 317 317 317 316 316 316 316 316 316
Wind_Speed
21 21 21 22 21 20 21 21 21 21 20 20 19 19 19 19 20 19 18 17 16 15 14 13 12 12 13 12 12 12 10 11 13 15 16 19 21 15 8 5 5 6 6 7 6 5 6 9 11 14 10 3 2 2 1 2 2 3 3 2 1 2 3 4 5 5 3 2 5 3 1 5 2 2 1 2 4 2 1 2 2 3 3 3 4 5 8 24
21 21 21 22 22 21 21 21 21 21 20 20 20 19 19 19 20 20 19 19 17 16 15 14 13 13 12 12 11 10 9 10 13 18 24 26 24 19 14 8 5 5 4 3 2 3 4 4 8 10 6 2 2 3 2 1 2 3 3 2 3 5 4 4 5 5 3 2 4 3 1 3 3 3 2 1 2 2 1 4 4 5 6 2 2 4 16 24
21 21 21 21 22 21 21 20 21 21 20 20 20 19 20 19 19 19 19 20 18 16 15 15 15 13 12 12 10 10 8 6 9 17 27 28 26 24 20 14 9 8 6 3 2 4 5 3 4 6 4 1 2 2 2 1 1 2 3 1 5 6 4 4 4 6 4 2 2 2 1 2 3 2 1 3 2 0 4 5 1 4 8 4 0 8 17 20
21 21 21 21 22 22 21 21 22 22 21 20 20 20 20 19 19 19 18 20 19 17 16 15 15 15 14 12 11 11 5 3 7 15 26 29 28 27 24 19 14 12 10 5 3 3 5 5 4 4 3 1 3 2 1 2 1 2 4 4 5 3 2 6 6 6 4 3 4 3 2 1 2 2 2 5 4 3 6 7 7 8 9 6 4 8 15 17
19 20 21 21 21 21 21 22 21 21 21 20 21 21 19 19 20 19 18 20 21 20 17 15 15 15 15 13 13 13 7 1 5 7 17 24 28 29 26 22 18 15 11 7 5 5 5 4 4 4 3 0 2 2 2 2 2 2 3 5 5 4 2 6 5 5 3 4 4 5 3 2 2 1 3 8 6 5 6 7 9 9 7 7 8 10 11 12
18 19 20 21 20 20 21 22 21 20 20 19 21 21 19 20 20 20 19 20 21 21 18 16 15 15 15 14 16 16 10 3 1 4 2 8 22 30 27 24 21 18 13 9 8 7 4 4 5 3 2 1 1 2 3 2 2 2 3 3 4 4 4 3 1 3 4 5 2 4 3 3 3 1 2 7 7 7 6 6 6 7 6 7 8 11 10 10
18 18 19 20 20 19 20 21 21 20 19 19 20 20 20 20 20 20 20 19 21 21 19 16 15 15 15 14 15 13 8 6 1 5 7 11 8 25 27 25 24 21 15 12 10 7 4 5 3 3 3 1 2 4 3 2 2 2 3 4 4 4 5 3 1 1 3 4 3 2 3 4 5 3 2 4 9 9 6 5 4 4 7 9 8 10 11 12
18 18 18 19 19 19 20 20 20 21 19 18 19 19 19 20 20 20 19 19 20 21 20 17 16 16 16 14 11 7 7 12 11 7 2 12 10 9 22 23 23 23 18 17 14 9 6 6 5 4 2 2 3 3 2 2 2 3 5 4 2 2 4 4 3 3 3 4 2 2 3 5 7 4 4 6 11 9 6 2 1 3 7 8 8 10 10 10
17 17 18 18 18 19 20 19 19 21 20 19 19 19 20 20 19 20 19 19 19 21 20 19 17 15 18 14 7 7 10 19 25 17 12 11 14 6 15 19 21 24 19 19 18 14 9 5 6 5 3 3 3 2 1 1 2 4 5 3 2 4 4 3 2 5 5 4 2 2 6 6 3 2 2 8 10 6 2 3 4 6 6 7 8 9 10 9
17 17 17 17 18 18 19 19 19 19 20 20 20 19 20 19 19 19 19 18 19 21 20 20 18 14 18 13 7 9 7 14 28 27 24 22 15 7 10 17 19 23 19 15 16 15 10 8 7 5 4 2 3 3 1 3 3 2 3 2 4 5 5 2 1 4 4 3 4 5 8 5 1 2 3 8 7 4 5 4 4 6 7 8 8 8 10 10
17 17 17 17 17 18 19 19 19 20 20 21 20 20 20 19 18 18 19 19 19 20 20 20 18 15 17 11 9 9 3 7 18 22 25 25 18 7 6 16 19 21 17 11 14 15 10 11 11 7 2 3 3 1 2 3 1 0 2 1 5 5 6 2 3 4 1 3 5 7 6 4 1 2 6 7 3 5 7 6 5 6 7 8 9 8 8 10
16 16 16 17 17 18 18 19 20 20 21 21 21 20 20 19 19 18 18 18 18 19 20 21 18 15 13 7 10 9 6 9 9 9 16 20 19 10 4 11 18 20 17 10 11 13 8 8 12 7 3 4 4 1 3 3 0 0 3 1 6 6 6 6 4 3 4 3 4 6 4 5 6 6 8 8 2 4 6 6 5 7 7 6 7 7 6 10
16 16 16 17 18 18 18 19 20 20 20 20 21 20 19 19 19 19 19 18 18 18 18 20 17 15 11 4 7 12 13 14 9 4 8 12 15 12 5 6 14 20 18 12 10 11 8 4 6 5 3 5 3 2 1 2 1 1 2 1 3 4 5 7 3 2 5 4 5 5 4 6 10 10 9 7 3 4 5 6 6 7 6 6 6 6 7 10
15 15 16 17 18 19 18 19 20 20 19 20 20 20 19 18 19 19 19 19 19 17 17 18 16 12 8 4 6 11 17 18 11 5 5 9 12 10 6 6 12 16 14 10 8 7 9 5 3 2 1 3 2 1 3 4 2 1 1 1 2 3 5 6 4 6 5 4 5 7 6 7 9 10 9 7 5 6 7 8 7 7 7 6 6 7 8 9
13 14 15 16 17 18 18 18 19 19 19 19 19 20 19 18 18 18 19 20 19 17 16 16 15 9 2 6 7 9 18 18 11 8 6 9 12 10 9 11 12 14 11 8 8 6 5 6 4 2 1 0 1 1 3 4 3 1 3 2 3 5 5 6 4 8 9 4 4 8 6 7 9 9 9 7 6 7 9 10 8 8 8 7 6 7 8 9
10 12 13 14 15 17 18 18 18 18 19 18 19 19 19 18 16 16 18 20 18 16 13 9 10 8 2 4 4 5 13 15 11 11 10 12 13 12 14 15 12 12 9 6 5 6 6 6 2 2 2 1 3 3 2 2 3 1 4 4 3 5 4 4 4 6 10 5 3 8 6 4 6 9 9 5 7 8 9 10 9 8 8 7 7 7 7 8
7 9 10 12 13 15 17 18 18 18 18 18 18 17 18 17 15 15 16 17 16 15 12 4 6 9 4 3 2 2 8 11 14 16 15 15 15 15 16 12 8 10 7 4 5 3 3 3 1 2 3 2 3 5 2 5 7 4 3 4 4 4 5 3 3 4 6 5 5 8 8 7 8 8 7 4 6 8 9 11 10 9 8 7 7 7 7 8
7 7 8 9 11 13 16 18 18 18 18 18 17 15 16 15 14 14 12 13 11 8 6 2 7 8 6 7 5 2 3 10 18 19 17 15 15 17 17 8 7 11 7 2 4 3 1 1 2 2 3 4 5 6 9 11 9 6 5 5 5 4 4 4 3 3 4 6 7 8 9 11 12 11 8 5 4 7 10 11 9 8 8 8 8 7 7 8
9 7 6 8 9 10 13 16 16 17 18 17 15 12 10 8 7 9 9 12 8 4 3 4 8 5 2 5 6 3 1 9 17 17 16 15 13 14 12 7 8 9 6 3 4 5 3 1 3 4 4 7 9 12 14 8 5 8 9 8 7 5 5 4 4 4 5 5 8 10 10 8 11 14 11 7 5 6 9 9 7 7 8 8 8 7 8 9
10 9 6 6 8 8 10 12 14 17 17 17 17 13 7 5 4 3 5 7 6 4 2 4 9 5 2 2 2 4 4 7 9 8 13 14 13 11 4 3 6 6 6 7 5 5 5 4 6 9 9 10 12 13 12 5 3 5 6 6 7 7 6 4 4 6 3 4 7 9 11 9 10 14 12 9 7 7 8 9 8 8 8 8 9 9 10 10
10 9 7 6 6 7 7 9 12 15 17 20 20 10 3 5 4 2 3 3 7 6 1 1 2 3 1 2 2 2 3 4 3 4 13 15 15 13 3 2 5 6 9 9 4 4 5 7 10 14 15 12 11 12 11 8 6 3 4 5 7 7 6 4 5 6 1 3 5 5 8 10 10 13 12 8 8 10 10 11 12 11 10 9 9 11 11 9
10 9 8 7 6 6 5 7 9 11 15 21 20 7 2 6 6 3 4 2 5 5 3 2 3 4 2 2 2 2 2 4 4 3 12 13 11 10 6 5 6 6 8 7 4 4 6 9 16 17 14 9 8 11 13 14 12 6 3 4 5 3 3 3 4 3 0 3 4 4 8 11 8 11 13 10 10 10 11 12 14 14 12 10 11 12 12 10
9 9 8 7 6 5 4 5 5 8 14 19 15 6 5 9 10 8 6 2 2 3 4 5 5 4 1 2 2 0 1 4 5 5 12 11 6 7 6 7 7 6 7 9 8 8 8 11 16 12 6 8 9 10 12 12 10 9 7 6 6 3 3 5 4 2 3 4 4 4 7 9 7 8 12 14 11 8 10 13 12 13 12 13 13 12 11 11
9 8 8 7 4 4 3 3 6 11 16 17 13 6 8 11 12 11 6 0 2 2 4 6 5 4 4 3 4 3 1 3 3 6 14 12 4 4 6 8 9 8 6 10 14 13 13 10 6 7 8 12 14 10 11 9 7 11 12 10 10 6 6 7 3 1 3 4 3 3 7 9 9 11 13 13 12 9 10 11 12 13 13 12 13 13 12 11
9 7 8 7 5 4 3 5 7 11 13 11 10 7 9 11 12 10 5 1 2 2 1 3 3 5 7 5 4 4 1 2 3 5 12 15 10 5 5 5 6 10 11 12 13 12 15 10 6 10 14 14 14 10 11 10 7 10 12 14 15 11 8 6 2 1 4 6 5 4 7 11 9 13 16 12 14 15 10 11 15 15 15 14 12 13 13 11
11 8 7 7 6 2 4 4 4 9 9 7 11 11 9 10 13 10 6 1 3 1 4 5 4 8 11 7 6 5 1 4 5 5 7 12 14 7 5 5 3 9 12 9 7 5 9 8 7 12 13 13 13 11 13 12 8 10 10 13 14 11 9 7 6 5 5 7 4 9 8 12 6 9 13 12 15 21 14 13 17 16 15 15 14 14 14 12
14 10 7 7 6 5 4 1 5 9 6 5 12 15 8 8 15 12 5 1 3 3 6 5 4 7 9 10 12 7 3 3 5 6 7 10 11 3 4 8 5 7 7 4 5 4 6 10 10 12 12 12 12 12 14 13 10 10 6 9 11 11 12 11 8 7 8 6 3 7 10 11 10 7 8 10 13 19 18 14 15 14 15 16 15 15 15 14
18 13 7 8 9 10 4 1 7 8 4 5 10 14 10 8 13 10 3 3 4 3 4 4 5 5 3 8 15 9 3 4 5 4 8 12 10 2 3 11 10 9 7 7 9 5 5 11 13 14 12 9 10 12 11 12 12 10 4 7 9 11 12 11 9 8 9 7 6 8 8 7 13 8 6 8 11 16 20 17 14 13 15 16 16 16 16 17
20 16 9 8 10 12 8 4 8 9 8 6 8 13 12 10 10 5 1 3 2 1 1 3 5 5 4 6 10 10 4 3 3 1 3 8 8 1 3 9 9 9 7 7 10 6 3 6 10 13 10 8 11 10 9 13 13 6 7 5 2 4 6 7 8 7 8 9 10 12 10 7 13 8 7 7 11 17 18 15 13 13 14 15 15 16 17 16
20 18 13 6 11 13 11 6 9 12 9 7 10 15 13 10 6 2 3 4 0 1 1 1 2 3 9 9 7 11 9 2 1 2 2 3 4 1 2 2 3 4 4 5 9 9 4 3 2 6 7 8 10 8 10 15 12 7 8 4 1 2 0 2 4 4 6 8 10 14 14 11 13 11 8 9 12 14 13 13 11 9 11 13 13 14 15 14
21 19 14 6 16 17 10 5 10 13 9 11 16 15 10 5 1 2 4 2 1 1 1 1 2 2 10 12 7 8 9 4 1 3 3 2 4 5 2 1 3 3 4 3 7 9 8 6 1 2 4 5 6 6 7 10 8 7 6 5 4 1 1 2 2 2 5 8 10 14 15 13 13 10 6 8 12 13 12 13 12 9 10 12 12 13 14 14
24 20 12 7 17 19 13 8 11 12 12 17 16 8 4 1 1 3 2 3 1 2 1 2 2 2 8 10 7 7 7 5 3 4 5 4 4 6 6 5 4 5 6 6 7 7 8 9 5 2 3 4 6 4 4 4 6 6 4 5 5 4 3 5 6 5 7 11 8 10 13 12 14 14 7 6 7 9 11 12 12 11 11 11 12 13 13 13
27 21 12 8 17 21 19 14 12 12 17 20 12 3 1 2 2 5 3 2 1 2 0 2 3 4 8 8 5 7 6 4 5 5 5 5 4 6 10 9 6 4 3 6 8 6 6 10 8 3 3 4 9 7 5 4 7 9 8 8 8 6 4 6 7 5 8 12 6 6 10 6 9 13 13 14 10 9 11 11 11 12 11 11 12 13 13 13
27 20 12 8 19 23 21 16 13 15 20 17 7 1 2 1 2 5 4 3 2 1 2 1 2 4 7 7 5 6 5 4 6 6 5 6 4 6 8 10 9 3 2 3 6 7 10 10 8 10 5 8 12 11 9 6 7 10 9 8 9 7 5 5 6 7 8 8 4 4 6 6 7 6 6 12 14 12 11 9 10 11 11 10 9 10 12 13
27 17 9 7 18 23 22 18 15 20 20 10 3 2 3 3 2 3 4 4 2 1 1 1 3 3 3 3 3 5 3 3 6 5 5 7 6 6 7 7 10 7 2 3 3 6 12 10 7 12 10 12 14 11 7 6 4 7 5 5 7 8 7 5 5 6 5 5 3 3 4 4 5 9 6 5 8 13 14 11 11 12 11 10 9 10 12 12
25 15 5 10 19 23 23 19 20 23 16 6 2 2 3 4 4 3 3 3 3 3 3 3 3 3 3 1 1 3 2 1 5 5 3 7 7 8 7 4 7 10 7 5 2 2 7 7 4 7 8 12 15 12 10 8 4 4 5 7 7 6 7 7 8 5 3 7 5 5 7 5 3 13 12 7 5 11 15 14 14 14 13 13 13 12 12 12
23 13 4 11 19 24 25 23 26 23 9 4 4 4 3 2 3 4 2 3 3 3 5 2 0 2 3 2 2 4 3 1 4 5 3 5 5 7 8 4 5 12 12 8 5 2 4 6 3 4 7 10 10 10 10 9 7 5 5 9 6 1 1 3 7 6 7 11 6 7 12 10 6 9 8 7 8 11 14 14 15 15 15 15 15 15 14 13
18 9 5 10 20 26 27 29 29 18 4 2 6 6 2 2 2 2 2 3 3 3 4 2 3 2 2 3 3 4 6 4 4 5 4 4 4 7 11 6 4 11 14 11 7 3 3 6 6 6 10 7 5 7 6 7 8 5 3 7 5 2 3 3 4 5 9 11 7 10 15 11 9 8 5 6 11 11 12 13 14 16 16 15 15 16 17 15
11 5 3 9 21 26 30 31 23 11 3 4 7 6 2 1 2 1 1 2 3 3 3 3 2 1 2 3 3 3 5 6 6 4 4 4 4 6 11 9 5 9 14 14 8 4 3 4 7 5 7 5 5 5 7 8 7 3 0 4 3 3 5 6 5 5 8 10 8 10 12 9 8 8 10 13 12 9 9 11 13 16 16 14 14 15 16 15
6 3 1 10 24 29 33 27 12 5 5 5 5 4 0 0 3 3 1 1 2 2 2 2 1 2 2 2 1 1 3 5 5 4 4 5 4 5 7 8 6 7 11 14 11 6 3 4 6 3 1 3 3 6 11 12 10 5 4 7 6 4 3 4 5 5 6 8 8 8 9 8 5 6 12 17 13 9 11 12 13 14 15 15 15 15 14 13
4 2 1 14 31 34 29 15 4 5 4 1 2 2 1 0 1 3 2 2 2 1 2 3 3 3 4 3 2 2 3 3 4 4 2 2 2 2 2 1 2 5 7 9 9 8 4 4 7 7 4 4 5 9 13 13 12 10 9 10 11 9 6 5 6 6 5 7 7 8 10 8 4 5 10 14 13 10 12 13 13 14 15 16 15 14 13 12
4 2 2 19 36 35 20 5 3 4 2 1 3 2 1 2 1 1 1 2 1 0 2 2 2 3 3 3 2 2 3 2 4 4 2 3 4 3 2 3 2 1 2 4 7 9 6 3 8 10 8 7 8 6 5 3 4 8 10 12 12 10 9 9 9 7 7 8 7 9 11 6 3 6 7 9 11 9 11 13 13 12 14 15 14 13 12 12
2 2 3 23 39 29 11 4 4 3 1 1 1 1 0 2 1 1 1 2 2 1 1 0 2 3 3 2 2 2 3 3 4 4 4 4 5 8 10 9 5 1 1 1 4 7 6 3 6 9 8 8 9 6 2 3 2 5 9 11 11 11 13 13 12 9 9 9 7 8 10 6 4 6 7 8 10 7 6 10 11 10 8 10 12 12 11 12
1 2 1 21 35 22 6 4 5 4 3 1 1 2 2 1 3 3 1 3 3 3 3 2 3 3 3 2 3 3 4 3 3 5 5 3 4 7 11 13 11 5 3 3 3 3 3 4 7 7 6 7 7 7 6 3 2 4 6 9 11 13 15 13 9 8 10 11 11 11 11 7 3 5 7 7 7 6 5 6 8 8 7 8 10 11 10 11
1 1 2 10 19 12 3 2 3 5 5 3 2 2 2 1 2 3 4 3 3 4 4 2 2 3 3 2 2 3 5 5 4 5 3 3 4 4 6 11 11 7 6 8 8 3 2 3 6 7 8 10 11 9 8 7 7 6 4 8 11 12 15 13 8 8 9 10 14 14 11 8 6 7 9 7 5 6 7 6 6 7 8 8 8 8 10 10
1 0 1 2 4 3 3 0 3 4 5 4 2 3 5 3 3 1 4 4 3 3 2 0 2 3 3 4 3 4 6 6 5 3 3 4 3 2 5 8 8 9 11 12 10 5 0 3 6 7 9 10 10 8 6 5 6 7 5 11 14 14 16 13 8 10 9 8 13 14 11 12 13 14 14 9 5 7 8 7 6 6 8 8 8 9 9 9
0 0 1 1 0 1 3 1 3 5 5 5 3 3 5 5 3 1 2 3 2 2 1 1 2 4 4 6 6 5 5 4 4 4 5 6 4 4 4 2 5 9 10 8 8 5 1 5 9 11 11 11 11 12 11 10 9 9 9 12 15 16 18 16 12 13 10 9 13 12 12 17 17 17 18 14 10 9 8 7 7 7 8 8 8 9 10 10
1 0 1 1 1 2 3 3 5 5 6 7 4 2 4 6 6 3 1 1 1 2 3 2 4 10 11 7 5 3 2 2 3 6 8 7 6 5 4 1 4 6 4 4 5 4 2 6 10 11 12 12 12 13 13 12 11 11 13 14 13 13 17 19 19 19 16 13 12 10 13 18 13 11 17 18 15 14 11 10 8 7 7 7 7 8 9 10
2 1 1 1 1 1 1 4 8 6 6 8 5 3 4 6 6 5 2 2 2 3 4 5 9 11 9 5 4 4 4 3 5 8 8 8 7 5 3 4 3 2 4 4 4 3 3 5 8 9 11 13 13 12 12 13 12 12 14 15 15 15 16 17 19 20 20 19 17 14 19 20 10 7 13 16 15 13 10 9 8 8 9 8 8 8 9 11
2 2 2 3 2 1 2 2 7 7 6 6 6 5 6 7 6 5 3 4 5 3 4 11 12 4 4 6 6 8 10 10 11 11 8 7 6 4 3 4 3 1 3 4 3 3 4 5 7 7 7 11 11 10 12 13 11 14 16 14 13 14 15 16 16 16 17 18 18 19 21 19 12 10 13 16 16 13 11 10 10 10 10 10 9 10 11 12
4 4 2 3 2 1 0 1 4 6 6 6 7 5 6 9 8 5 4 7 10 7 6 12 10 3 5 8 10 15 18 15 15 14 7 6 7 5 4 5 5 3 3 4 3 3 5 5 5 4 4 7 7 9 11 12 12 14 15 14 13 13 12 14 14 14 15 16 17 19 18 15 12 12 15 18 21 21 19 15 11 9 10 12 13 14 15 14
8 4 2 2 2 1 1 0 2 5 5 6 9 7 7 8 6 7 5 6 10 13 10 8 5 4 5 10 14 19 17 11 11 12 6 6 8 7 6 7 6 6 4 4 2 2 5 4 2 4 4 6 8 9 9 9 9 10 10 12 15 14 13 13 14 15 17 16 14 15 14 12 12 14 16 19 22 23 22 18 14 12 14 16 16 16 17 16
Wind_Direction
263 261 259 260 259 256 255 255 252 249 248 246 245 245 244 243 243 242 240 242 242 242 243 242 240 234 233 236 234 234 242 246 253 251 243 245 244 238 228 210 203 214 220 240 269 310 344 3 4 6 6 6 10 338 3 18 70 64 78 109 210 202 205 191 180 187 162 258 267 293 190 154 192 234 183 30 40 55 360 310 301 299 267 221 269 309 156 159
263 261 259 259 259 257 254 254 253 251 247 245 244 244 244 242 242 240 239 240 240 242 242 240 238 230 226 228 225 223 230 245 261 258 246 243 247 241 227 218 217 216 211 218 203 63 53 13 351 12 26 17 343 335 354 344 90 89 117 137 230 202 213 210 181 182 164 222 243 265 175 170 199 175 144 209 308 14 177 273 337 320 277 280 330 148 154 159
262 261 260 257 256 255 254 253 253 251 247 245 243 242 242 241 240 240 238 238 238 240 240 239 236 229 223 218 215 213 222 262 275 259 248 240 243 244 234 227 231 239 245 229 156 95 96 80 4 30 48 13 329 333 2 330 164 137 134 166 245 213 238 261 210 202 201 185 201 237 164 167 229 188 169 181 180 303 209 231 261 268 255 253 300 153 158 160
262 261 260 258 255 252 254 253 251 250 246 244 242 239 240 239 238 240 238 236 238 238 238 238 234 231 222 207 206 202 190 306 272 255 253 245 240 241 238 232 230 243 252 233 192 133 108 94 52 44 59 352 323 358 331 264 202 158 146 189 232 187 229 258 225 216 206 165 153 157 126 155 228 192 161 146 142 267 247 228 207 220 225 201 197 175 168 167
263 260 259 259 255 251 253 252 250 250 246 243 241 239 238 238 237 237 238 236 236 237 238 236 232 234 220 201 201 186 141 325 270 252 255 248 240 239 239 233 231 241 244 222 189 136 113 91 78 54 49 333 328 27 246 260 107 165 199 205 209 145 201 255 226 213 176 124 118 125 146 175 164 163 158 151 168 235 235 227 218 222 209 178 181 178 174 177
264 261 258 258 256 251 252 252 250 250 247 242 241 241 236 236 235 234 238 237 235 235 237 235 231 233 220 202 199 185 167 215 28 72 320 261 236 232 234 233 229 233 232 207 174 139 121 74 70 79 59 360 223 192 248 300 71 208 249 250 229 175 206 260 189 207 161 129 137 157 176 126 109 249 186 170 206 225 222 222 228 236 206 170 166 169 177 187
266 262 258 257 255 252 251 250 249 248 248 243 240 242 235 234 235 234 237 236 234 233 235 234 229 230 220 201 196 194 198 232 162 98 55 25 253 226 225 229 224 224 220 194 164 138 124 98 108 133 102 360 215 207 249 335 31 199 250 274 253 202 212 242 110 173 164 176 241 154 135 138 160 201 149 198 237 235 239 244 245 233 175 157 161 177 189 192
265 262 259 257 254 252 251 248 248 247 246 242 239 242 236 234 235 234 236 235 234 232 234 233 229 229 219 198 191 209 227 226 214 183 81 17 3 233 216 219 217 214 208 198 179 154 144 136 162 149 123 231 196 209 263 17 5 203 222 251 271 239 237 274 293 277 259 240 267 113 183 209 188 163 142 219 247 247 247 251 173 151 145 159 180 190 198 199
265 262 258 256 253 251 250 246 246 245 244 239 237 240 237 232 233 234 234 235 233 232 233 230 229 229 220 207 186 216 229 222 218 219 247 294 344 337 206 205 207 205 201 205 193 168 163 165 185 175 168 206 181 229 275 119 239 210 202 218 276 288 297 327 294 275 284 260 180 163 245 256 217 151 192 233 239 235 201 114 125 138 155 184 193 197 201 205
265 262 258 255 251 250 249 245 243 242 241 238 236 238 235 228 231 233 230 232 232 231 231 229 230 225 221 218 200 215 227 228 228 233 246 263 300 328 203 201 202 199 196 200 191 174 174 183 178 153 145 170 181 216 198 170 212 203 176 207 248 279 310 11 318 300 312 271 188 190 243 265 280 201 233 250 234 182 141 141 158 158 183 200 199 206 205 211
267 262 257 253 250 248 248 244 240 239 239 238 235 236 235 228 228 232 230 230 230 230 228 228 231 222 216 218 220 217 160 220 236 238 244 250 263 287 216 209 202 196 192 191 193 189 189 179 150 117 151 179 159 227 255 202 225 258 140 305 275 293 304 261 266 282 289 274 203 185 251 281 313 218 219 244 226 163 171 179 185 185 206 210 207 213 206 220
268 263 257 252 248 245 245 245 240 239 239 238 235 233 236 231 224 228 231 230 230 230 228 228 230 224 220 226 231 214 173 222 245 242 239 240 241 248 252 218 205 198 193 187 197 198 192 166 146 142 204 161 140 248 248 204 113 118 124 300 290 322 303 248 251 245 169 227 191 158 297 278 241 232 221 235 197 149 190 195 202 209 221 220 216 222 216 227
270 264 257 251 248 242 242 244 241 240 238 235 234 231 233 234 226 224 227 229 228 229 230 228 228 228 229 244 234 208 198 226 248 257 236 230 226 229 249 234 208 202 200 198 197 196 195 169 147 172 176 120 160 219 90 63 75 196 136 163 276 318 286 240 219 149 165 208 164 153 262 245 237 242 229 234 194 155 208 218 217 220 228 230 225 228 230 234
278 267 257 250 247 241 239 241 241 241 236 234 234 233 231 231 230 224 222 227 227 227 231 228 221 221 227 249 258 221 211 224 236 232 224 212 204 203 210 210 198 195 195 188 170 181 204 198 121 128 125 102 180 229 41 10 6 184 216 177 191 233 267 255 206 154 177 225 147 164 239 242 247 256 241 236 200 183 221 231 221 219 227 229 225 227 237 237
289 274 260 253 248 243 239 238 241 240 236 234 233 234 232 227 232 229 222 223 224 227 232 227 213 202 251 267 266 241 223 228 227 207 213 204 185 177 182 182 187 187 176 151 119 101 157 174 136 120 243 360 138 74 33 344 350 95 223 223 187 209 261 290 234 175 193 242 132 169 233 258 255 257 246 229 190 192 222 233 227 222 225 225 228 228 236 244
298 285 269 258 252 247 240 236 240 239 235 233 232 234 232 227 229 231 224 217 220 226 226 226 207 197 291 267 234 224 220 221 208 196 209 210 198 186 175 172 179 181 174 157 128 93 109 137 138 144 141 105 156 140 64 333 296 238 210 216 205 206 231 281 271 210 203 216 179 199 225 258 255 252 250 223 182 199 222 236 236 227 228 225 227 228 234 249
308 298 282 267 256 248 240 233 235 239 234 228 228 228 228 228 226 231 228 212 213 220 216 201 163 185 258 280 217 214 210 201 190 191 199 206 208 193 170 161 160 155 153 166 170 139 116 140 127 157 142 136 156 131 139 229 228 226 213 231 230 199 200 212 263 250 209 216 225 221 225 234 250 259 267 258 191 203 224 235 238 232 232 228 224 229 232 240
320 311 294 280 264 249 241 232 228 235 233 223 222 219 219 221 217 227 219 186 185 197 205 146 125 169 245 248 216 207 207 189 185 192 196 194 201 192 174 155 135 138 139 176 172 150 189 180 153 188 163 162 164 158 201 221 211 199 194 224 238 220 223 214 236 234 179 215 230 221 230 236 252 262 265 273 201 197 230 236 238 241 238 238 234 230 230 234
323 322 308 289 274 257 243 232 223 227 226 215 204 190 192 198 196 211 178 147 151 154 183 184 160 171 259 228 198 161 175 187 188 195 191 182 184 180 167 144 138 144 158 202 187 158 161 140 167 203 201 189 188 193 211 211 164 190 202 218 227 224 243 222 239 252 175 209 236 229 239 239 249 257 252 253 218 196 240 252 248 249 245 243 242 235 235 236
320 323 324 301 279 266 250 235 224 222 219 200 176 150 146 159 144 198 166 151 191 189 112 179 190 198 34 3 205 147 144 174 185 189 180 176 160 151 137 114 148 166 185 195 185 156 159 186 207 210 208 203 199 206 220 213 152 191 200 222 227 221 243 217 229 267 181 201 249 236 247 244 242 256 250 241 236 225 246 260 253 242 241 244 243 242 240 237
316 317 325 318 287 270 261 246 229 221 215 193 172 148 145 177 162 189 157 178 222 207 76 29 222 249 330 351 350 95 115 166 191 171 174 172 150 153 181 157 172 194 199 195 173 147 169 201 219 214 208 202 196 202 214 225 227 200 161 218 235 223 246 232 219 269 187 189 268 268 265 255 241 257 259 236 233 238 234 243 250 243 239 245 244 245 244 243
315 314 316 320 305 278 267 256 237 224 215 192 175 167 170 165 164 164 131 150 239 224 221 266 311 313 312 348 344 7 34 169 193 178 177 175 160 173 190 177 195 205 192 183 162 186 200 219 225 218 210 200 199 200 203 217 224 213 173 220 245 220 253 269 242 282 198 188 267 275 266 264 248 252 261 246 227 232 231 232 244 246 243 244 243 245 247 249
318 311 304 313 313 279 260 259 231 204 203 191 182 182 146 144 149 144 131 134 242 225 208 213 234 258 265 296 257 323 31 174 180 194 189 183 173 182 173 175 201 209 191 183 194 209 213 226 228 221 203 196 208 205 202 214 221 222 217 222 239 196 172 256 257 252 227 216 241 256 263 268 259 252 261 257 236 220 232 235 240 246 244 243 245 248 248 248
329 308 296 305 304 273 249 212 175 180 194 194 192 177 142 151 150 135 125 122 241 231 217 199 203 219 205 218 206 160 126 198 183 196 188 177 157 164 175 180 191 209 212 195 201 217 228 232 208 185 198 207 210 202 198 210 220 226 222 222 236 214 197 238 244 216 268 267 241 260 284 267 244 243 252 259 252 226 219 231 240 246 245 246 250 253 252 247
335 309 295 293 286 275 209 167 158 180 193 194 194 172 139 160 161 132 105 17 257 281 249 175 178 217 200 176 171 154 140 242 233 205 184 178 171 156 184 186 184 209 213 207 208 220 234 231 149 180 205 209 213 209 201 203 219 233 221 217 227 219 209 224 191 177 280 272 218 169 273 270 229 224 236 241 252 246 219 212 230 238 243 245 248 252 252 247
338 319 295 276 273 250 171 162 167 183 184 189 199 180 135 146 153 125 86 61 258 232 167 169 170 196 191 166 146 135 209 235 207 185 183 192 186 165 188 186 184 216 203 206 222 221 232 220 184 207 210 200 212 219 209 201 216 237 216 205 220 221 213 204 180 189 234 258 218 157 225 269 238 208 225 217 236 251 237 215 225 230 235 241 242 245 248 247
345 325 290 263 251 189 158 188 173 169 170 206 207 189 161 146 143 121 79 265 241 150 151 190 193 181 182 164 146 143 230 195 139 174 193 205 203 182 201 186 187 217 184 175 225 201 197 200 202 216 209 199 209 217 211 198 215 242 208 173 200 214 219 214 201 210 232 259 266 186 212 260 259 228 214 197 217 248 247 230 225 224 229 236 240 244 245 244
347 333 296 250 230 195 187 235 166 169 195 206 197 191 188 163 138 119 94 231 223 163 148 202 181 141 138 151 151 167 249 106 116 213 186 188 203 184 197 200 202 204 173 178 212 200 181 198 207 213 210 204 211 218 203 188 220 244 172 156 191 207 218 222 218 229 243 246 245 223 206 253 264 240 183 190 210 240 248 239 227 219 222 229 234 240 243 243
347 343 315 249 219 207 216 224 185 194 208 192 178 181 168 138 124 106 189 226 251 260 227 194 163 129 129 143 160 192 226 110 145 267 132 179 209 220 210 211 209 207 188 196 219 223 207 206 208 211 212 209 216 218 184 188 220 213 138 153 186 188 213 227 228 234 243 240 234 225 199 224 266 243 175 191 215 231 244 244 233 218 215 222 228 234 239 242
345 345 330 251 201 208 212 219 213 202 200 194 174 161 136 110 103 94 218 220 51 264 264 194 219 189 160 151 169 196 202 193 125 88 96 173 197 209 293 228 168 205 211 219 233 236 254 288 226 208 211 208 215 213 189 200 207 135 125 175 123 75 251 243 239 237 246 245 236 228 206 207 259 254 195 202 222 224 235 246 240 214 208 221 226 233 240 242
342 346 339 231 200 200 189 209 219 200 192 180 159 142 114 84 78 162 211 252 34 227 305 34 290 223 161 162 176 185 189 206 144 142 163 164 175 185 251 333 124 182 208 210 238 237 247 267 259 217 214 182 196 216 209 207 183 127 131 184 179 191 270 249 243 222 243 246 229 223 209 203 242 253 188 203 224 215 217 235 240 218 205 216 222 229 237 240
339 342 340 236 208 198 187 203 205 189 180 164 143 116 99 111 219 196 241 346 18 238 216 164 230 180 165 176 178 167 174 193 186 179 176 174 195 193 209 215 175 200 209 197 217 223 237 240 214 272 290 174 175 201 211 188 164 159 153 165 186 207 206 213 221 213 239 252 234 200 197 204 238 250 239 234 226 208 212 220 228 228 212 207 217 226 231 235
335 334 328 242 206 200 199 202 194 177 166 154 131 61 90 142 201 203 230 350 192 249 348 165 181 153 165 178 175 165 173 190 178 185 187 179 207 212 213 219 211 219 208 194 210 210 239 246 211 216 307 187 180 186 195 183 174 184 182 183 196 200 208 213 214 221 237 251 254 173 181 205 245 248 242 238 222 201 214 212 215 229 223 211 214 223 232 234
332 328 320 245 205 205 204 197 191 171 157 146 125 100 180 230 217 184 203 228 219 313 6 158 147 140 168 181 174 156 167 216 181 175 192 181 199 224 218 221 216 216 65 188 214 201 224 244 196 184 192 177 189 203 197 172 178 195 190 198 203 195 215 216 203 222 235 255 282 153 177 196 221 241 232 229 222 203 207 210 213 229 232 226 219 222 235 238
329 327 319 228 202 204 201 196 187 166 153 139 112 145 188 230 218 176 204 214 212 14 7 13 94 121 194 198 172 163 176 214 174 163 200 195 203 222 216 217 212 204 152 196 220 195 219 246 202 190 187 173 190 210 188 149 188 209 185 204 217 203 216 243 241 227 227 265 264 177 218 215 239 287 285 228 217 202 206 214 216 230 237 237 237 228 232 238
330 328 299 205 198 198 196 193 178 163 153 128 117 180 209 214 197 186 187 154 149 149 116 37 58 139 222 240 149 197 228 204 169 169 209 208 219 227 217 213 195 197 198 206 245 183 209 248 222 188 197 189 193 197 182 171 187 196 186 207 218 212 215 241 259 247 225 258 235 173 240 250 285 284 256 200 174 192 205 213 214 224 230 232 240 236 229 232
328 319 257 200 198 194 192 186 168 157 146 121 168 210 217 205 187 176 162 120 146 137 101 71 261 171 202 209 182 187 173 105 188 188 189 195 219 223 219 234 181 190 199 203 234 216 192 263 271 152 214 221 196 187 194 193 183 177 204 202 193 247 262 234 251 243 228 246 236 187 229 232 216 257 241 179 182 196 201 206 210 219 224 227 237 241 237 233
317 293 240 207 201 192 187 178 161 148 116 137 201 234 207 185 223 166 144 123 118 109 108 152 208 174 168 192 202 182 174 184 188 189 189 185 215 205 200 222 206 193 196 193 219 231 168 264 270 184 207 223 151 168 218 234 218 211 202 186 181 231 223 198 235 242 230 241 243 220 230 230 212 237 261 208 207 207 200 203 211 218 222 227 235 243 248 246
302 254 245 208 199 187 175 168 153 133 133 175 209 233 186 163 261 247 167 122 80 109 167 205 189 145 156 174 186 175 182 201 192 193 205 185 221 215 191 201 213 198 194 187 203 233 158 233 256 208 193 182 134 176 216 232 236 259 110 188 214 243 219 211 217 238 242 244 248 236 231 229 210 216 240 236 223 203 194 205 216 219 221 226 232 239 247 250
284 233 235 185 186 178 164 156 139 133 191 193 194 208 130 27 256 258 230 124 69 88 188 219 169 169 201 188 198 165 181 213 204 202 221 193 226 252 198 190 193 191 196 190 194 211 182 201 243 259 186 163 166 197 205 209 209 203 205 209 214 222 243 255 228 225 247 244 247 249 239 234 208 190 222 237 235 200 188 203 216 218 222 226 229 233 240 249
267 252 209 171 172 164 150 142 149 175 192 213 159 155 25 82 243 289 314 64 81 58 100 143 173 191 199 193 217 184 159 207 215 194 217 214 217 279 287 221 194 180 187 194 199 202 188 195 226 245 253 215 212 207 207 215 212 201 206 212 214 213 218 250 236 217 235 239 240 255 256 250 232 206 217 231 236 211 194 205 212 213 218 225 229 231 233 242
253 262 177 167 165 156 142 142 194 158 163 218 173 162 169 150 112 283 260 88 98 77 72 103 175 187 191 188 192 175 144 182 222 193 208 231 190 195 273 310 305 311 140 191 213 202 190 209 230 237 245 236 235 227 204 214 234 227 219 213 216 216 211 227 235 222 227 231 229 251 260 250 210 220 222 227 235 221 200 209 216 214 217 224 232 232 229 236
240 306 161 165 163 157 148 180 175 152 201 222 174 236 202 143 171 223 207 176 172 146 80 91 200 194 220 202 150 171 177 193 216 195 206 234 205 203 219 217 215 255 52 215 228 204 192 204 227 242 259 252 252 266 285 71 69 250 233 217 217 216 213 224 234 237 241 233 224 248 255 237 201 226 231 232 243 243 216 218 224 224 221 227 237 238 233 236
248 323 128 164 168 167 166 184 179 181 187 93 85 256 308 103 191 198 204 215 188 141 147 208 206 196 227 196 139 184 204 194 220 217 198 209 230 221 218 214 206 183 157 183 192 207 215 198 206 227 252 255 254 259 254 230 194 223 227 224 227 223 222 229 236 246 252 238 230 244 250 238 235 256 248 243 260 269 251 237 233 230 226 225 234 240 240 239
236 339 29 164 176 188 216 176 168 177 179 165 176 223 236 220 216 198 188 220 212 162 169 214 190 163 175 165 134 205 212 203 222 235 207 207 253 259 222 219 209 189 197 192 169 159 253 214 207 214 220 232 235 231 233 236 231 225 209 222 234 233 230 235 235 233 238 232 231 239 248 249 264 278 267 264 287 282 262 252 245 238 236 233 233 239 244 245
233 198 38 141 180 229 255 129 121 163 179 176 191 216 198 209 291 241 182 215 236 189 176 314 145 147 157 172 188 221 223 220 222 233 226 219 244 278 233 220 207 205 213 195 165 136 224 240 242 240 233 242 253 259 281 297 262 245 217 213 220 224 227 233 236 233 236 243 239 236 242 251 255 259 260 260 259 259 257 251 244 240 243 243 238 238 241 245
255 206 118 143 47 203 215 168 122 151 166 166 184 207 190 202 257 287 182 222 237 192 216 251 170 186 195 181 193 222 219 215 225 230 235 231 239 274 269 211 210 227 220 189 164 141 154 244 251 254 255 264 278 287 301 314 297 279 266 240 225 218 219 223 234 238 239 250 247 235 231 241 243 245 253 258 252 252 258 255 245 237 234 234 236 242 245 248
24 360 175 264 285 194 204 187 153 153 163 169 184 180 173 197 210 213 233 273 288 202 211 244 211 212 214 185 169 215 182 155 228 229 232 238 238 262 287 206 214 230 193 157 172 163 178 248 251 254 260 257 259 268 278 287 286 280 279 274 261 240 224 222 232 237 233 239 251 253 248 248 246 246 253 256 253 253 255 252 247 244 243 238 239 246 252 253
9 340 281 328 308 262 255 160 154 158 167 178 204 210 192 203 204 207 185 115 264 234 195 235 242 222 216 184 160 210 188 168 233 231 225 236 229 222 249 253 240 202 144 157 198 192 194 242 248 252 261 256 246 245 253 260 265 269 272 275 275 268 250 238 238 240 239 243 249 255 257 257 253 249 260 263 262 260 258 252 245 245 249 247 241 243 249 250
3 322 334 339 304 278 346 132 162 184 188 191 215 212 207 218 209 207 179 164 223 246 179 228 245 218 168 182 194 229 221 206 228 233 216 222 229 202 210 243 249 201 160 169 197 216 206 228 242 241 253 258 246 234 236 237 244 258 266 269 273 276 273 264 255 251 251 252 251 249 253 256 247 238 254 267 271 269 261 249 242 239 242 243 239 239 242 245
336 286 317 316 297 119 22 72 167 194 197 202 215 201 213 225 203 189 214 205 213 217 197 223 234 131 148 190 201 229 232 220 230 241 216 194 217 207 203 224 212 184 190 189 186 201 206 227 252 236 242 260 243 225 232 237 241 250 257 261 264 265 267 264 257 251 250 253 253 249 249 253 248 239 244 253 257 258 256 249 242 237 235 234 233 234 238 241
346 307 332 304 299 17 186 136 188 213 209 207 216 212 224 231 184 174 227 235 217 219 218 215 199 145 201 217 215 229 235 224 232 246 227 205 225 222 214 224 205 174 179 201 193 193 199 204 227 217 237 268 254 232 231 240 246 245 240 240 245 248 251 254 256 252 248 249 251 250 248 249 248 241 239 242 245 250 253 250 241 234 233 232 232 234 237 239